"SCLK","SCET","ORBIT_NUMBER","ALTITUDE","LATITUDE_PLANEOGRAPHIC","LATITUDE_PLANETOCENTRIC","LOCAL_TRUE_SOLAR_TIME","WEST_LONGITUDE","X_SUN_DIR_DISTANCE","RHO_PRP_SUN_DISTANCE","SOLAR_ZENITH_ANGLE","ELECTRON_PLASMA_FREQUENCY","FPE_QUALITY","FPP_VERIFICATION","ELECTRON_PLASMA_DENSITY","ELECTRON_CYCLOTRON_PERIOD","FCP_QUALITY","B_MAGNITUDE"
"1/0366653909.55445",2014-12-14T16:18:33.848,13901,1552.00,32.64,32.40,"15:59:13",226.32,-1.370,0.500,159.89,,,,,2.66e+00,1,1.34e+01
"1/0366653917.25495",2014-12-14T16:18:41.391,13901,1541.00,32.92,32.68,"15:57:03",226.33,-1.360,0.500,159.77,,,,,2.66e+00,1,1.34e+01
"1/0366653924.61146",2014-12-14T16:18:48.935,13901,1531.00,33.20,32.96,"15:54:53",226.34,-1.360,0.500,159.65,,,,,2.67e+00,1,1.34e+01
"1/0366653932.31196",2014-12-14T16:18:56.478,13901,1520.00,33.49,33.24,"15:52:43",226.35,-1.350,0.500,159.52,,,,,2.64e+00,1,1.35e+01
"1/0366653940.01246",2014-12-14T16:19:04.021,13901,1509.00,33.78,33.53,"15:52:50",226.35,-1.350,0.510,159.40,,,,,2.66e+00,1,1.34e+01
"1/0366653947.36832",2014-12-14T16:19:11.564,13901,1498.00,34.07,33.82,"15:50:40",226.36,-1.350,0.510,159.27,4.40e+01,1,,2.40e+01,2.64e+00,1,1.35e+01
"1/0366653955.06882",2014-12-14T16:19:19.107,13901,1488.00,34.36,34.11,"15:48:30",226.37,-1.340,0.510,159.13,4.20e+01,1,,2.19e+01,2.66e+00,1,1.34e+01
"1/0366653962.42534",2014-12-14T16:19:26.651,13901,1477.00,34.65,34.39,"15:46:20",226.38,-1.340,0.510,158.99,3.00e+01,1,,1.12e+01,2.62e+00,1,1.36e+01
"1/0366653970.12584",2014-12-14T16:19:34.194,13901,1466.00,34.94,34.69,"15:44:09",226.39,-1.330,0.510,158.85,4.00e+01,1,,1.98e+01,2.61e+00,1,1.37e+01
"1/0366653977.48170",2014-12-14T16:19:41.737,13901,1456.00,35.23,34.98,"15:44:17",226.39,-1.330,0.520,158.70,4.20e+01,1,,2.19e+01,2.54e+00,1,1.41e+01
"1/0366653985.18220",2014-12-14T16:19:49.280,13901,1445.00,35.53,35.27,"15:42:07",226.40,-1.330,0.520,158.55,3.80e+01,1,,1.79e+01,2.64e+00,1,1.35e+01
"1/0366653992.53806",2014-12-14T16:19:56.823,13901,1434.00,35.82,35.57,"15:39:56",226.41,-1.320,0.520,158.40,4.00e+01,1,,1.98e+01,2.69e+00,1,1.33e+01
"1/0366654000.23922",2014-12-14T16:20:04.367,13901,1424.00,36.12,35.86,"15:40:04",226.41,-1.320,0.520,158.24,5.60e+01,1,,3.89e+01,,,
"1/0366654007.59508",2014-12-14T16:20:11.910,13901,1413.00,36.42,36.16,"15:37:54",226.42,-1.310,0.520,158.08,3.90e+01,1,,1.89e+01,,,
"1/0366654015.29558",2014-12-14T16:20:19.453,13901,1403.00,36.72,36.46,"15:38:01",226.42,-1.310,0.530,157.92,3.80e+01,1,,1.79e+01,,,
"1/0366654022.65144",2014-12-14T16:20:26.996,13901,1392.00,37.02,36.76,"15:35:51",226.43,-1.300,0.530,157.75,3.70e+01,1,,1.70e+01,2.54e+00,1,1.41e+01
"1/0366654030.35194",2014-12-14T16:20:34.539,13901,1382.00,37.32,37.06,"15:33:41",226.44,-1.300,0.530,157.58,3.90e+01,1,,1.89e+01,2.67e+00,1,1.34e+01
"1/0366654038.05309",2014-12-14T16:20:42.083,13901,1371.00,37.63,37.36,"15:33:48",226.44,-1.300,0.540,157.41,4.00e+01,1,,1.98e+01,2.62e+00,1,1.36e+01
"1/0366654045.40895",2014-12-14T16:20:49.626,13901,1361.00,37.93,37.66,"15:33:55",226.44,-1.290,0.540,157.23,4.20e+01,2,,2.19e+01,2.66e+00,1,1.34e+01
"1/0366654053.10945",2014-12-14T16:20:57.169,13901,1351.00,38.24,37.97,"15:31:45",226.45,-1.290,0.540,157.05,4.00e+01,1,,1.98e+01,2.59e+00,1,1.38e+01
"1/0366654060.46531",2014-12-14T16:21:04.712,13901,1340.00,38.55,38.28,"15:31:52",226.45,-1.280,0.540,156.87,4.00e+01,1,,1.98e+01,2.62e+00,1,1.36e+01
"1/0366654068.16581",2014-12-14T16:21:12.255,13901,1330.00,38.86,38.58,"15:29:42",226.46,-1.280,0.550,156.68,3.90e+01,1,,1.89e+01,2.67e+00,1,1.34e+01
"1/0366654075.52233",2014-12-14T16:21:19.799,13901,1320.00,39.17,38.89,"15:29:50",226.46,-1.270,0.550,156.49,3.70e+01,1,,1.70e+01,2.54e+00,1,1.41e+01
"1/0366654083.22283",2014-12-14T16:21:27.342,13901,1310.00,39.48,39.20,"15:29:57",226.46,-1.270,0.550,156.30,4.30e+01,2,,2.29e+01,2.67e+00,1,1.34e+01
"1/0366654090.57869",2014-12-14T16:21:34.885,13901,1299.00,39.79,39.52,"15:30:04",226.46,-1.260,0.560,156.10,4.30e+01,2,,2.29e+01,2.67e+00,1,1.34e+01
"1/0366654098.27919",2014-12-14T16:21:42.428,13901,1289.00,40.11,39.83,"15:27:54",226.47,-1.260,0.560,155.90,4.40e+01,2,,2.40e+01,2.66e+00,1,1.34e+01
"1/0366654105.63505",2014-12-14T16:21:49.971,13901,1279.00,40.42,40.14,"15:28:01",226.47,-1.250,0.560,155.70,4.70e+01,1,,2.74e+01,2.67e+00,1,1.34e+01
"1/0366654113.33621",2014-12-14T16:21:57.515,13901,1269.00,40.74,40.46,"15:28:09",226.47,-1.250,0.560,155.49,5.10e+01,2,,3.23e+01,2.67e+00,1,1.34e+01
"1/0366654121.03671",2014-12-14T16:22:05.058,13901,1259.00,41.06,40.78,"15:28:16",226.47,-1.240,0.570,155.28,6.30e+01,2,,4.92e+01,2.71e+00,1,1.32e+01
"1/0366654128.39257",2014-12-14T16:22:12.601,13901,1249.00,41.38,41.10,"15:28:23",226.47,-1.240,0.570,155.07,9.90e+01,2,,1.22e+02,2.92e+00,1,1.22e+01
"1/0366654136.09307",2014-12-14T16:22:20.144,13901,1239.00,41.70,41.42,"15:28:31",226.47,-1.230,0.570,154.86,1.11e+02,2,,1.53e+02,3.10e+00,1,1.15e+01
"1/0366654143.44893",2014-12-14T16:22:27.687,13901,1229.00,42.02,41.74,"15:28:38",226.47,-1.230,0.580,154.64,1.02e+02,2,,1.29e+02,,,
"1/0366654151.15008",2014-12-14T16:22:35.231,13901,1219.00,42.35,42.06,"15:28:45",226.47,-1.220,0.580,154.41,1.11e+02,2,,1.53e+02,,,
"1/0366654158.50594",2014-12-14T16:22:42.774,13901,1209.00,42.67,42.38,"15:28:53",226.47,-1.220,0.590,154.19,1.31e+02,2,,2.13e+02,,,
"1/0366654166.20644",2014-12-14T16:22:50.317,13901,1199.00,43.00,42.71,"15:29:00",226.47,-1.210,0.590,153.96,1.50e+02,2,,2.79e+02,,,
"1/0366654173.56230",2014-12-14T16:22:57.860,13901,1189.00,43.33,43.04,"15:31:25",226.46,-1.210,0.590,153.73,1.51e+02,2,,2.83e+02,,,
"1/0366654181.26280",2014-12-14T16:23:05.403,13901,1179.00,43.65,43.37,"15:31:32",226.46,-1.200,0.600,153.50,1.49e+02,2,,2.75e+02,,,
"1/0366654188.61932",2014-12-14T16:23:12.947,13901,1169.00,43.99,43.70,"15:31:40",226.46,-1.200,0.600,153.26,1.56e+02,2,,3.02e+02,,,
"1/0366654196.31982",2014-12-14T16:23:20.490,13901,1159.00,44.32,44.03,"15:34:04",226.45,-1.190,0.600,153.02,1.73e+02,2,,3.71e+02,,,
"1/0366654204.02032",2014-12-14T16:23:28.033,13901,1150.00,44.65,44.36,"15:34:12",226.45,-1.190,0.610,152.78,1.81e+02,2,,4.06e+02,,,
"1/0366654211.37618",2014-12-14T16:23:35.576,13901,1140.00,44.99,44.70,"15:36:37",226.44,-1.180,0.610,152.54,1.72e+02,2,,3.67e+02,,,
"1/0366654219.07734",2014-12-14T16:23:43.120,13901,1130.00,45.32,45.03,"15:36:44",226.44,-1.180,0.610,152.29,1.81e+02,2,,4.06e+02,,,
"1/0366654226.43320",2014-12-14T16:23:50.663,13901,1121.00,45.66,45.37,"15:39:09",226.43,-1.170,0.620,152.04,1.89e+02,2,,4.43e+02,,,
"1/0366654234.13370",2014-12-14T16:23:58.206,13901,1111.00,46.00,45.71,"15:39:16",226.43,-1.170,0.620,151.78,1.94e+02,2,,4.67e+02,,,
"1/0366654241.48956",2014-12-14T16:24:05.749,13901,1102.00,46.34,46.05,"15:41:41",226.42,-1.160,0.630,151.53,1.85e+02,2,,4.24e+02,,,
"1/0366654249.19006",2014-12-14T16:24:13.292,13901,1092.00,46.68,46.39,"15:44:06",226.41,-1.160,0.630,151.27,1.83e+02,2,,4.15e+02,,,
"1/0366654256.54657",2014-12-14T16:24:20.836,13901,1083.00,47.03,46.73,"15:46:31",226.40,-1.150,0.630,151.01,1.87e+02,2,,4.34e+02,,,
"1/0366654264.24707",2014-12-14T16:24:28.379,13901,1073.00,47.37,47.08,"15:48:56",226.39,-1.150,0.640,150.74,1.85e+02,2,,4.24e+02,,,
"1/0366654271.60293",2014-12-14T16:24:35.922,13901,1064.00,47.72,47.42,"15:51:20",226.38,-1.140,0.640,150.48,1.88e+02,2,,4.38e+02,,,
"1/0366654279.30343",2014-12-14T16:24:43.465,13901,1054.00,48.07,47.77,"15:53:45",226.37,-1.140,0.650,150.21,1.87e+02,2,,4.34e+02,,,
"1/0366654287.00393",2014-12-14T16:24:51.008,13901,1045.00,48.41,48.12,"15:56:10",226.36,-1.130,0.650,149.94,1.82e+02,2,,4.11e+02,,,
"1/0366654294.36045",2014-12-14T16:24:58.552,13901,1036.00,48.77,48.47,"15:58:35",226.35,-1.130,0.650,149.66,1.83e+02,2,,4.15e+02,,,
"1/0366654302.06095",2014-12-14T16:25:06.095,13901,1027.00,49.12,48.82,"16:03:17",226.33,-1.120,0.660,149.38,1.82e+02,2,,4.11e+02,,,
"1/0366654309.41681",2014-12-14T16:25:13.638,13901,1018.00,49.47,49.18,"16:05:42",226.32,-1.110,0.660,149.10,1.80e+02,2,,4.02e+02,,,
"1/0366654317.11731",2014-12-14T16:25:21.181,13901,1008.00,49.83,49.53,"16:08:07",226.31,-1.110,0.670,148.82,1.76e+02,2,,3.84e+02,,,
"1/0366654324.47317",2014-12-14T16:25:28.724,13901,999.00,50.18,49.89,"16:12:49",226.29,-1.100,0.670,148.54,1.78e+02,2,,3.93e+02,,,
"1/0366654332.17432",2014-12-14T16:25:36.268,13901,990.00,50.54,50.24,"16:17:32",226.27,-1.100,0.670,148.25,1.78e+02,2,,3.93e+02,,,
"1/0366654339.53019",2014-12-14T16:25:43.811,13901,981.00,50.90,50.60,"16:19:57",226.26,-1.090,0.680,147.96,1.81e+02,2,,4.06e+02,,,
"1/0366654347.23069",2014-12-14T16:25:51.354,13901,972.00,51.26,50.96,"16:24:39",226.24,-1.090,0.680,147.67,1.80e+02,2,,4.02e+02,,,
"1/0366654354.58655",2014-12-14T16:25:58.897,13901,963.00,51.62,51.33,"16:29:21",226.22,-1.080,0.690,147.37,1.79e+02,2,,3.97e+02,,,
"1/0366654362.28705",2014-12-14T16:26:06.440,13901,955.00,51.98,51.69,"16:34:04",226.20,-1.070,0.690,147.08,1.80e+02,2,,4.02e+02,,,
"1/0366654369.64356",2014-12-14T16:26:13.984,13901,946.00,52.35,52.06,"16:38:46",226.18,-1.070,0.690,146.78,1.78e+02,2,,3.93e+02,,,
"1/0366654377.34406",2014-12-14T16:26:21.527,13901,937.00,52.72,52.42,"16:43:28",226.16,-1.060,0.700,146.48,1.78e+02,2,,3.93e+02,,,
"1/0366654385.04456",2014-12-14T16:26:29.070,13901,928.00,53.08,52.79,"16:50:28",226.13,-1.060,0.700,146.17,1.80e+02,2,,4.02e+02,,,
"1/0366654392.40042",2014-12-14T16:26:36.613,13901,920.00,53.45,53.16,"16:55:11",226.11,-1.050,0.710,145.87,1.80e+02,2,,4.02e+02,,,
"1/0366654400.10092",2014-12-14T16:26:44.156,13901,911.00,53.82,53.53,"17:02:10",226.08,-1.050,0.710,145.56,1.78e+02,2,,3.93e+02,,,
"1/0366654407.45744",2014-12-14T16:26:51.700,13901,902.00,54.20,53.90,"17:06:53",226.06,-1.040,0.710,145.25,1.75e+02,2,,3.80e+02,,,
"1/0366654415.15794",2014-12-14T16:26:59.243,13901,894.00,54.57,54.28,"17:13:53",226.03,-1.030,0.720,144.93,1.77e+02,2,,3.89e+02,,,
"1/0366654422.51380",2014-12-14T16:27:06.786,13901,885.00,54.94,54.65,"17:20:53",226.00,-1.030,0.720,144.62,1.74e+02,2,,3.75e+02,,,
"1/0366654430.21430",2014-12-14T16:27:14.329,13901,877.00,55.32,55.03,"17:27:52",225.97,-1.020,0.730,144.30,1.74e+02,2,,3.75e+02,,,
"1/0366654437.57016",2014-12-14T16:27:21.872,13901,869.00,55.70,55.41,"17:37:10",225.93,-1.010,0.730,143.98,1.78e+02,2,,3.93e+02,,,
"1/0366654445.27131",2014-12-14T16:27:29.416,13901,860.00,56.08,55.79,"17:44:10",225.90,-1.010,0.740,143.66,1.79e+02,2,,3.97e+02,,,
"1/0366654452.62717",2014-12-14T16:27:36.959,13901,852.00,56.46,56.17,"17:53:27",225.86,-1.000,0.740,143.33,1.83e+02,2,,4.15e+02,,,
"1/0366654460.32768",2014-12-14T16:27:44.502,13901,844.00,56.84,56.55,"18:00:27",225.83,-1.000,0.740,143.01,1.74e+02,2,,3.75e+02,,,
"1/0366654468.02818",2014-12-14T16:27:52.045,13901,836.00,57.22,56.94,"18:09:44",225.79,-0.990,0.750,142.68,1.74e+02,2,,3.75e+02,,,
"1/0366654475.38404",2014-12-14T16:27:59.588,13901,828.00,57.61,57.32,"18:19:02",225.75,-0.980,0.750,142.35,1.77e+02,2,,3.89e+02,,,
"1/0366654483.08519",2014-12-14T16:28:07.132,13901,820.00,57.99,57.71,"18:28:19",225.71,-0.980,0.760,142.01,1.78e+02,2,,3.93e+02,,,
"1/0366654490.44105",2014-12-14T16:28:14.675,13901,812.00,58.38,58.10,"18:39:54",225.66,-0.970,0.760,141.68,1.81e+02,2,,4.06e+02,,,
"1/0366654498.14155",2014-12-14T16:28:22.218,13901,804.00,58.77,58.49,"18:49:11",225.62,-0.960,0.770,141.34,1.80e+02,2,,4.02e+02,,,
"1/0366654505.49741",2014-12-14T16:28:29.761,13901,796.00,59.16,58.88,"19:00:46",225.57,-0.960,0.770,141.00,1.83e+02,2,,4.15e+02,,,
"1/0366654513.19791",2014-12-14T16:28:37.304,13901,788.00,59.55,59.27,"19:12:21",225.52,-0.950,0.770,140.66,1.85e+02,2,,4.24e+02,,,
"1/0366654520.55443",2014-12-14T16:28:44.848,13901,780.00,59.94,59.67,"19:23:56",225.47,-0.950,0.780,140.32,1.95e+02,2,,4.72e+02,,,
"1/0366654528.25493",2014-12-14T16:28:52.391,13901,773.00,60.34,60.07,"19:37:48",225.41,-0.940,0.780,139.97,2.07e+02,2,,5.31e+02,,,
"1/0366654535.61079",2014-12-14T16:28:59.934,13901,765.00,60.73,60.46,"19:51:41",225.35,-0.930,0.790,139.62,2.13e+02,2,,5.63e+02,,,
"1/0366654543.31129",2014-12-14T16:29:07.477,13901,758.00,61.13,60.86,"20:05:33",225.29,-0.930,0.790,139.27,2.23e+02,2,,6.17e+02,,,
"1/0366654551.01179",2014-12-14T16:29:15.020,13901,750.00,61.53,61.26,"20:19:26",225.23,-0.920,0.800,138.92,2.22e+02,2,,6.11e+02,,,
"1/0366654558.36830",2014-12-14T16:29:22.564,13901,743.00,61.93,61.66,"20:33:18",225.17,-0.910,0.800,138.57,2.22e+02,2,,6.11e+02,,,
"1/0366654566.06880",2014-12-14T16:29:30.107,13901,735.00,62.33,62.07,"20:49:28",225.10,-0.910,0.800,138.21,2.24e+02,2,,6.22e+02,,,
"1/0366654573.42467",2014-12-14T16:29:37.650,13901,728.00,62.73,62.47,"21:05:38",225.03,-0.900,0.810,137.85,2.32e+02,2,,6.67e+02,,,
"1/0366654581.12517",2014-12-14T16:29:45.193,13901,721.00,63.14,62.88,"21:24:05",224.95,-0.890,0.810,137.49,2.33e+02,2,,6.73e+02,,,
"1/0366654588.48103",2014-12-14T16:29:52.736,13901,714.00,63.54,63.28,"21:40:15",224.88,-0.890,0.820,137.13,2.34e+02,2,,6.79e+02,,,
"1/0366654596.18218",2014-12-14T16:30:00.280,13901,706.00,63.95,63.69,"21:58:42",224.80,-0.880,0.820,136.77,2.26e+02,2,,6.33e+02,,,
"1/0366654603.53804",2014-12-14T16:30:07.823,13901,699.00,64.36,64.10,"22:19:27",224.71,-0.870,0.820,136.40,2.20e+02,2,,6.00e+02,,,
"1/0366654611.23854",2014-12-14T16:30:15.366,13901,692.00,64.76,64.51,"22:40:12",224.62,-0.870,0.830,136.04,2.17e+02,2,,5.84e+02,,,
"1/0366654618.59440",2014-12-14T16:30:22.909,13901,685.00,65.17,64.93,"23:00:57",224.53,-0.860,0.830,135.67,2.17e+02,2,,5.84e+02,,,
"1/0366654626.29490",2014-12-14T16:30:30.452,13901,679.00,65.59,65.34,"23:24:00",224.43,-0.850,0.840,135.30,2.20e+02,2,,6.00e+02,,,
"1/0366654633.65142",2014-12-14T16:30:37.996,13901,672.00,66.00,65.76,"23:47:02",224.33,-0.840,0.840,134.93,2.12e+02,2,,5.57e+02,,,
"1/0366654641.35192",2014-12-14T16:30:45.539,13901,665.00,66.41,66.17,"00:10:05",224.23,-0.840,0.850,134.55,2.17e+02,2,,5.84e+02,,,
"1/0366654649.05242",2014-12-14T16:30:53.082,13901,658.00,66.83,66.59,"00:35:25",224.12,-0.830,0.850,134.17,2.16e+02,2,,5.79e+02,,,
"1/0366654656.40828",2014-12-14T16:31:00.625,13901,652.00,67.24,67.01,"01:03:02",224.00,-0.820,0.850,133.80,2.21e+02,2,,6.06e+02,,,
"1/0366654664.10878",2014-12-14T16:31:08.168,13901,645.00,67.66,67.43,"01:30:39",223.88,-0.820,0.860,133.42,2.16e+02,2,,5.79e+02,,,
"1/0366654671.46529",2014-12-14T16:31:15.712,13901,639.00,68.08,67.85,"02:00:34",223.75,-0.810,0.860,133.04,2.18e+02,2,,5.89e+02,,,
"1/0366654679.16579",2014-12-14T16:31:23.255,13901,632.00,68.50,68.27,"02:32:47",223.61,-0.800,0.870,132.65,2.06e+02,2,,5.26e+02,,,
"1/0366654686.52165",2014-12-14T16:31:30.798,13901,626.00,68.92,68.70,"03:04:59",223.47,-0.800,0.870,132.27,2.15e+02,2,,5.73e+02,,,
"1/0366654694.22216",2014-12-14T16:31:38.341,13901,620.00,69.34,69.12,"03:39:29",223.32,-0.790,0.870,131.88,2.14e+02,2,,5.68e+02,,,
"1/0366654701.57802",2014-12-14T16:31:45.884,13901,614.00,69.76,69.55,"04:13:59",223.17,-0.780,0.880,131.49,2.18e+02,2,,5.89e+02,,,
"1/0366654709.27917",2014-12-14T16:31:53.428,13901,608.00,70.19,69.98,"04:53:04",223.00,-0.770,0.880,131.10,2.28e+02,2,,6.45e+02,,,
"1/0366654716.63503",2014-12-14T16:32:00.971,13901,602.00,70.61,70.41,"05:32:09",222.83,-0.770,0.890,130.71,2.32e+02,2,,6.67e+02,,,
"1/0366654724.33553",2014-12-14T16:32:08.514,13901,596.00,71.04,70.84,"06:13:32",222.65,-0.760,0.890,130.32,2.23e+02,2,,6.17e+02,,,
"1/0366654732.03603",2014-12-14T16:32:16.057,13901,590.00,71.47,71.27,"06:59:29",222.45,-0.750,0.890,129.92,2.34e+02,2,,6.79e+02,,,
"1/0366654739.39255",2014-12-14T16:32:23.601,13901,584.00,71.89,71.70,"07:45:27",222.25,-0.740,0.900,129.53,2.26e+02,2,,6.33e+02,,,
"1/0366654747.09305",2014-12-14T16:32:31.144,13901,578.00,72.32,72.13,"08:33:42",222.04,-0.740,0.900,129.13,2.40e+02,2,,7.14e+02,,,
"1/0366654754.44891",2014-12-14T16:32:38.687,13901,573.00,72.75,72.56,"09:26:32",221.81,-0.730,0.900,128.73,2.45e+02,2,,7.44e+02,,,
"1/0366654762.14941",2014-12-14T16:32:46.230,13901,567.00,73.18,73.00,"10:21:40",221.57,-0.720,0.910,128.33,2.36e+02,2,,6.91e+02,,,
"1/0366654769.50527",2014-12-14T16:32:53.773,13901,562.00,73.62,73.43,"11:21:22",221.31,-0.710,0.910,127.93,2.39e+02,2,,7.08e+02,,,
"1/0366654777.20642",2014-12-14T16:33:01.317,13901,556.00,74.05,73.87,"12:23:22",221.04,-0.710,0.920,127.52,2.34e+02,2,,6.79e+02,,,
"1/0366654784.56228",2014-12-14T16:33:08.860,13901,551.00,74.48,74.31,"13:29:57",220.75,-0.700,0.920,127.12,2.42e+02,2,,7.26e+02,,,
"1/0366654792.26278",2014-12-14T16:33:16.403,13901,546.00,74.91,74.74,"14:41:08",220.44,-0.690,0.920,126.71,2.35e+02,2,,6.85e+02,,,
"1/0366654799.61864",2014-12-14T16:33:23.946,13901,540.00,75.35,75.18,"15:56:53",220.11,-0.680,0.930,126.30,2.42e+02,2,,7.26e+02,,,
"1/0366654807.31914",2014-12-14T16:33:31.489,13901,535.00,75.78,75.62,"17:17:13",219.76,-0.680,0.930,125.89,2.49e+02,2,,7.69e+02,,,
"1/0366654815.02030",2014-12-14T16:33:39.033,13901,530.00,76.22,76.06,"18:42:08",219.39,-0.670,0.930,125.48,2.60e+02,2,,8.38e+02,,,
"1/0366654822.37616",2014-12-14T16:33:46.576,13901,525.00,76.65,76.50,"20:16:13",218.98,-0.660,0.940,125.07,2.64e+02,2,,8.64e+02,,,
"1/0366654830.07666",2014-12-14T16:33:54.119,13901,520.00,77.09,76.94,"21:54:54",218.55,-0.650,0.940,124.65,2.65e+02,2,,8.71e+02,,,
"1/0366654837.43252",2014-12-14T16:34:01.662,13901,516.00,77.52,77.38,"23:40:26",218.09,-0.650,0.950,124.24,2.60e+02,2,,8.38e+02,,,
"1/0366654845.13302",2014-12-14T16:34:09.205,13901,511.00,77.96,77.82,"01:37:27",217.58,-0.640,0.950,123.82,2.65e+02,2,,8.71e+02,,,
"1/0366654852.48954",2014-12-14T16:34:16.749,13901,506.00,78.40,78.26,"03:41:20",217.04,-0.630,0.950,123.40,2.61e+02,2,,8.45e+02,,,
"1/0366654860.19004",2014-12-14T16:34:24.292,13901,502.00,78.83,78.70,"05:56:40",216.45,-0.620,0.960,122.99,2.69e+02,2,,8.97e+02,,,
"1/0366654867.54590",2014-12-14T16:34:31.835,13901,497.00,79.27,79.14,"08:23:28",215.81,-0.620,0.960,122.56,2.67e+02,2,,8.84e+02,,,
"1/0366654875.24640",2014-12-14T16:34:39.378,13901,493.00,79.70,79.58,"11:01:44",215.12,-0.610,0.960,122.14,2.82e+02,2,,9.86e+02,,,
"1/0366654882.60226",2014-12-14T16:34:46.921,13901,489.00,80.13,80.02,"13:58:19",214.35,-0.600,0.970,121.72,2.81e+02,2,,9.79e+02,,,
"1/0366654890.30341",2014-12-14T16:34:54.465,13901,485.00,80.57,80.46,"17:08:40",213.52,-0.590,0.970,121.30,2.83e+02,2,,9.93e+02,,,
"1/0366654898.00391",2014-12-14T16:35:02.008,13901,480.00,81.00,80.89,"20:39:38",212.60,-0.580,0.970,120.87,2.80e+02,2,,9.72e+02,,,
"1/0366654905.35977",2014-12-14T16:35:09.551,13901,476.00,81.43,81.33,"00:33:31",211.58,-0.580,0.980,120.44,2.83e+02,2,,9.93e+02,,,
"1/0366654913.06027",2014-12-14T16:35:17.094,13901,473.00,81.86,81.76,"04:52:37",210.45,-0.570,0.980,120.02,2.79e+02,2,,9.65e+02,,,
"1/0366654920.41613",2014-12-14T16:35:24.637,13901,469.00,82.28,82.19,"09:39:13",209.20,-0.560,0.980,119.59,2.76e+02,2,,9.45e+02,,,
"1/0366654928.11729",2014-12-14T16:35:32.181,13901,465.00,82.70,82.61,"15:02:30",207.79,-0.550,0.990,119.16,2.85e+02,2,,1.01e+03,,,
"1/0366654935.47315",2014-12-14T16:35:39.724,13901,461.00,83.12,83.03,"21:07:01",206.20,-0.540,0.990,118.73,2.94e+02,2,,1.07e+03,,,
"1/0366654943.17365",2014-12-14T16:35:47.267,13901,458.00,83.53,83.45,"03:57:23",204.41,-0.540,0.990,118.29,2.90e+02,2,,1.04e+03,,,
"1/0366654950.52951",2014-12-14T16:35:54.810,13901,454.00,83.93,83.86,"11:47:20",202.36,-0.530,1.000,117.86,2.90e+02,2,,1.04e+03,,,
"1/0366654958.23001",2014-12-14T16:36:02.353,13901,451.00,84.33,84.26,"20:43:44",200.02,-0.520,1.000,117.43,2.93e+02,2,,1.06e+03,,,
"1/0366654965.58653",2014-12-14T16:36:09.897,13901,447.00,84.71,84.65,"07:00:22",197.33,-0.510,1.000,116.99,2.91e+02,2,,1.05e+03,,,
"1/0366654973.28703",2014-12-14T16:36:17.440,13901,444.00,85.09,85.03,"18:55:32",194.21,-0.500,1.010,116.56,2.99e+02,2,,1.11e+03,,,
"1/0366654980.64289",2014-12-14T16:36:24.983,13901,441.00,85.44,85.39,"08:47:35",190.58,-0.490,1.010,116.12,3.00e+02,2,,1.12e+03,,,
"1/0366654988.34339",2014-12-14T16:36:32.526,13901,438.00,85.78,85.72,"00:57:10",186.35,-0.490,1.010,115.68,2.98e+02,2,,1.10e+03,,,
"1/0366654996.04389",2014-12-14T16:36:40.069,13901,435.00,86.09,86.04,"19:49:27",181.41,-0.480,1.010,115.24,2.84e+02,2,,1.00e+03,,,
"1/0366655003.40040",2014-12-14T16:36:47.613,13901,432.00,86.36,86.31,"17:47:22",175.66,-0.470,1.020,114.80,2.87e+02,2,,1.02e+03,,,
"1/0366655011.10090",2014-12-14T16:36:55.156,13901,429.00,86.59,86.55,"19:02:24",169.05,-0.460,1.020,114.36,2.94e+02,2,,1.07e+03,,,
"1/0366655018.45676",2014-12-14T16:37:02.699,13901,427.00,86.77,86.73,"23:39:06",161.56,-0.450,1.020,113.92,2.91e+02,2,,1.05e+03,,,
"1/0366655026.15726",2014-12-14T16:37:10.242,13901,424.00,86.89,86.85,"07:03:06",153.34,-0.450,1.030,113.48,2.88e+02,2,,1.03e+03,,,
"1/0366655033.51312",2014-12-14T16:37:17.785,13901,422.00,86.94,86.90,"16:14:50",144.65,-0.440,1.030,113.04,2.72e+02,2,,9.17e+02,,,
"1/0366655041.21428",2014-12-14T16:37:25.329,13901,419.00,86.92,86.88,"01:49:28",135.86,-0.430,1.030,112.59,2.62e+02,2,,8.51e+02,,,
"1/0366655048.57014",2014-12-14T16:37:32.872,13901,417.00,86.83,86.79,"10:13:04",127.38,-0.420,1.030,112.15,2.69e+02,2,,8.97e+02,,,
"1/0366655056.27064",2014-12-14T16:37:40.415,13901,415.00,86.67,86.63,"16:12:17",119.53,-0.410,1.040,111.70,2.67e+02,2,,8.84e+02,,,
"1/0366655063.62650",2014-12-14T16:37:47.958,13901,412.00,86.46,86.41,"19:01:16",112.51,-0.400,1.040,111.26,2.57e+02,2,,8.19e+02,,,
"1/0366655071.32700",2014-12-14T16:37:55.501,13901,410.00,86.19,86.14,"18:28:34",106.37,-0.400,1.040,110.81,2.60e+02,2,,8.38e+02,,,
"1/0366655079.02816",2014-12-14T16:38:03.045,13901,408.00,85.89,85.84,"14:43:22",101.07,-0.390,1.040,110.36,2.56e+02,2,,8.13e+02,,,
"1/0366655086.38402",2014-12-14T16:38:10.588,13901,407.00,85.56,85.50,"08:06:16",96.52,-0.380,1.050,109.91,2.63e+02,2,,8.58e+02,,,
"1/0366655094.08452",2014-12-14T16:38:18.131,13901,405.00,85.21,85.14,"22:57:55",92.63,-0.370,1.050,109.47,2.60e+02,2,,8.38e+02,,,
"1/0366655101.44038",2014-12-14T16:38:25.674,13901,403.00,84.83,84.76,"11:45:48",89.28,-0.360,1.050,109.02,2.65e+02,2,,8.71e+02,,,
"1/0366655109.14088",2014-12-14T16:38:33.217,13901,402.00,84.44,84.37,"22:45:58",86.40,-0.350,1.050,108.57,2.64e+02,2,,8.64e+02,,,
"1/0366655116.49739",2014-12-14T16:38:40.761,13901,400.00,84.04,83.96,"08:16:45",83.91,-0.340,1.060,108.12,2.68e+02,2,,8.91e+02,,,
"1/0366655124.19789",2014-12-14T16:38:48.304,13901,399.00,83.62,83.54,"16:36:30",81.73,-0.340,1.060,107.67,2.69e+02,2,,8.97e+02,3.09e+00,1,1.16e+01
"1/0366655131.55375",2014-12-14T16:38:55.847,13901,397.00,83.20,83.11,"23:52:04",79.83,-0.330,1.060,107.22,,,,,3.06e+00,1,1.17e+01
"1/0366655139.25425",2014-12-14T16:39:03.390,13901,396.00,82.77,82.68,"06:17:13",78.15,-0.320,1.060,106.76,2.75e+02,2,,9.38e+02,3.04e+00,1,1.18e+01
"1/0366655146.61011",2014-12-14T16:39:10.933,13901,395.00,82.33,82.24,"11:58:49",76.66,-0.310,1.070,106.31,2.77e+02,2,,9.51e+02,,,
"1/0366655154.31127",2014-12-14T16:39:18.477,13901,394.00,81.89,81.79,"17:01:28",75.34,-0.300,1.070,105.86,2.79e+02,2,,9.65e+02,2.92e+00,1,1.22e+01
"1/0366655162.01177",2014-12-14T16:39:26.020,13901,393.00,81.45,81.34,"21:34:19",74.15,-0.290,1.070,105.41,2.83e+02,2,,9.93e+02,2.74e+00,1,1.30e+01
"1/0366655169.36763",2014-12-14T16:39:33.563,13901,392.00,81.00,80.89,"01:37:22",73.09,-0.280,1.070,104.95,2.80e+02,2,,9.72e+02,2.74e+00,1,1.30e+01
"1/0366655177.06813",2014-12-14T16:39:41.106,13901,392.00,80.54,80.43,"05:19:48",72.12,-0.280,1.070,104.50,2.83e+02,2,,9.93e+02,2.74e+00,1,1.30e+01
"1/0366655184.42399",2014-12-14T16:39:48.649,13901,391.00,80.09,79.97,"08:39:19",71.25,-0.270,1.080,104.05,2.76e+02,2,,9.45e+02,2.64e+00,2,1.35e+01
"1/0366655192.12515",2014-12-14T16:39:56.193,13901,390.00,79.63,79.51,"11:40:30",70.46,-0.260,1.080,103.59,2.78e+02,2,,9.58e+02,2.59e+00,2,1.38e+01
"1/0366655199.48101",2014-12-14T16:40:03.736,13901,390.00,79.17,79.04,"14:27:55",69.73,-0.250,1.080,103.14,2.82e+02,2,,9.86e+02,2.54e+00,1,1.41e+01
"1/0366655207.18151",2014-12-14T16:40:11.279,13901,390.00,78.71,78.58,"17:01:36",69.06,-0.240,1.080,102.69,2.71e+02,2,,9.11e+02,2.46e+00,1,1.45e+01